OneWeb SL0511

operational
NORAD ID: 54129 Int'l Des: 2022-138 Owner: ONEWEBN Country: UK Constellation: oneweb
LEOCIRCULARPOLARONEWEB_TYPE

Über OneWeb SL0511

Beschreibung wird geladen...

Live-Position

3D-Globus wird geladen...

Nächste Überflüge

Höhenverlauf

Altitude vs Time

uPlot chart will show altitude changes over time

Zweizeiliger Elementsatz

1 54129U 22138S 25261.20975544 .00000098 00000-0 21240-3 0 9998
2 54129 87.9291 359.0315 0001889 91.2660 268.8689 13.19726536140965
Epoch: 18. Sept. 2025 • Age: 6 hours

Aktueller Status

Höhe 1197.3 km
Geschwindigkeit 7.26 km/s
Subsatellitenpunkt 74.95°N, 154.01°W
Startdatum 22. Okt. 2022
Alter 2.9 years
Typ internet

Technische Details

Klassifizierung Payload
Masse 148.00 kg
Trockenmasse 140.00 kg
Gesamtmasse 148.00 kg
Länge 1.30 m
Durchmesser 1.00 m
Spannweite 5.00 m
Form Trapezoid+2 pan
Hersteller ONEWUS
Bus-Typ ARROW
Phasenstatus In Orbit
Besitzer/Staat ONEWEBN/UK

Große Konstellationen

Loading constellations...